Time,TemperatureF,DewpointF,PressureIn,WindDirection,WindDirectionDegrees,WindSpeedMPH,WindSpeedGustMPH,Humidity,HourlyPrecipIn,Conditions,Clouds,dailyrainin,SolarRadiationWatts/m^2,SoftwareType,DateUTC
2013-05-30 00:01:00,49.0,48.0,-100.00,SSE,156,2.0,3.0,98,0.00,,,0.08,0.000000,,2013-05-30 07:01:00,
2013-05-30 00:11:00,49.0,48.0,-100.00,SSE,156,2.0,3.0,98,0.00,,,0.08,0.000000,,2013-05-30 07:11:00,
2013-05-30 00:32:00,49.0,48.0,-100.00,SSW,207,1.0,3.0,98,0.00,,,0.08,0.000000,,2013-05-30 07:32:00,
2013-05-30 00:42:00,49.0,48.0,-100.00,SSW,207,1.0,3.0,98,0.00,,,0.08,0.000000,,2013-05-30 07:42:00,
2013-05-30 00:52:00,49.0,48.0,-100.00,SSW,207,1.0,3.0,98,0.00,,,0.08,0.000000,,2013-05-30 07:52:00,
2013-05-30 01:01:00,49.0,48.0,-100.00,SSW,207,1.0,3.0,98,0.00,,,0.08,0.000000,,2013-05-30 08:01:00,
2013-05-30 01:11:00,49.0,48.0,-100.00,SSW,207,1.0,3.0,98,0.00,,,0.08,0.000000,,2013-05-30 08:11:00,
2013-05-30 01:32:00,49.0,48.0,-100.00,SW,235,1.0,3.0,98,0.00,,,0.06,0.000000,,2013-05-30 08:32:00,
2013-05-30 01:42:00,49.0,48.0,-100.00,SW,235,1.0,3.0,98,0.00,,,0.06,0.000000,,2013-05-30 08:42:00,
2013-05-30 01:53:00,49.0,48.0,-100.00,SW,235,1.0,3.0,98,0.00,,,0.06,0.000000,,2013-05-30 08:53:00,
2013-05-30 02:01:00,49.0,48.0,-100.00,SW,235,1.0,3.0,98,0.00,,,0.06,0.000000,,2013-05-30 09:01:00,
2013-05-30 02:11:00,49.0,48.0,-100.00,SW,235,1.0,3.0,98,0.00,,,0.06,0.000000,,2013-05-30 09:11:00,
2013-05-30 02:33:00,48.0,47.0,-100.00,SSE,154,2.0,2.0,98,0.00,,,0.05,0.000000,,2013-05-30 09:33:00,
2013-05-30 02:43:00,48.0,47.0,-100.00,SSE,154,2.0,2.0,98,0.00,,,0.05,0.000000,,2013-05-30 09:43:00,
2013-05-30 02:53:00,48.0,47.0,-100.00,SSE,154,2.0,2.0,98,0.00,,,0.05,0.000000,,2013-05-30 09:53:00,
2013-05-30 03:02:00,48.0,47.0,-100.00,SSE,154,2.0,2.0,98,0.00,,,0.05,0.000000,,2013-05-30 10:02:00,
2013-05-30 03:12:00,48.0,47.0,-100.00,SSE,154,2.0,2.0,98,0.00,,,0.05,0.000000,,2013-05-30 10:12:00,
2013-05-30 03:33:00,47.0,47.0,-100.00,SSE,153,2.0,3.0,99,0.00,,,0.04,0.000000,,2013-05-30 10:33:00,
2013-05-30 03:42:00,47.0,47.0,-100.00,SSE,153,2.0,3.0,99,0.00,,,0.04,0.000000,,2013-05-30 10:42:00,
2013-05-30 03:52:00,47.0,47.0,-100.00,SSE,153,2.0,3.0,99,0.00,,,0.04,0.000000,,2013-05-30 10:52:00,
2013-05-30 04:03:00,47.0,47.0,-100.00,SSE,153,2.0,3.0,99,0.00,,,0.04,0.000000,,2013-05-30 11:03:00,
2013-05-30 04:12:00,47.0,47.0,-100.00,SSE,153,2.0,3.0,99,0.00,,,0.04,0.000000,,2013-05-30 11:12:00,
2013-05-30 04:32:00,46.0,46.0,-100.00,SE,138,1.0,3.0,100,0.00,,,0.03,0.000000,,2013-05-30 11:32:00,
2013-05-30 04:42:00,46.0,46.0,-100.00,SE,138,1.0,3.0,100,0.00,,,0.03,0.000000,,2013-05-30 11:42:00,
2013-05-30 04:52:00,46.0,46.0,-100.00,SE,138,1.0,3.0,100,0.00,,,0.03,0.000000,,2013-05-30 11:52:00,
2013-05-30 05:01:00,46.0,46.0,-100.00,SE,138,1.0,3.0,100,0.00,,,0.03,0.000000,,2013-05-30 12:01:00,
2013-05-30 05:11:00,46.0,46.0,-100.00,SE,138,1.0,3.0,100,0.00,,,0.03,0.000000,,2013-05-30 12:11:00,
2013-05-30 05:32:00,47.0,47.0,-100.00,SE,125,1.0,2.0,100,0.00,,,0.02,0.000000,,2013-05-30 12:32:00,
2013-05-30 05:42:00,47.0,47.0,-100.00,SE,125,1.0,2.0,100,0.00,,,0.02,0.000000,,2013-05-30 12:42:00,
2013-05-30 05:52:00,47.0,47.0,-100.00,SE,125,1.0,2.0,100,0.00,,,0.02,0.000000,,2013-05-30 12:52:00,
2013-05-30 06:01:00,47.0,47.0,-100.00,SE,125,1.0,2.0,100,0.00,,,0.02,0.000000,,2013-05-30 13:01:00,
2013-05-30 06:11:00,47.0,47.0,-100.00,SE,125,1.0,2.0,100,0.00,,,0.02,0.000000,,2013-05-30 13:11:00,
2013-05-30 06:32:00,47.0,47.0,-100.00,SSE,150,2.0,3.0,99,0.00,,,0.02,5.000000,,2013-05-30 13:32:00,
2013-05-30 06:42:00,47.0,47.0,-100.00,SSE,150,2.0,3.0,99,0.00,,,0.02,5.000000,,2013-05-30 13:42:00,
2013-05-30 06:52:00,47.0,47.0,-100.00,SSE,150,2.0,3.0,99,0.00,,,0.02,5.000000,,2013-05-30 13:52:00,
2013-05-30 07:01:00,47.0,47.0,-100.00,SSE,150,2.0,3.0,99,0.00,,,0.02,5.000000,,2013-05-30 14:01:00,
2013-05-30 07:11:00,47.0,47.0,-100.00,SSE,150,2.0,3.0,99,0.00,,,0.02,5.000000,,2013-05-30 14:11:00,
2013-05-30 08:33:00,49.0,48.0,-100.00,South,174,3.0,4.0,97,-99.99,,,0.02,75.000000,,2013-05-30 15:33:00,
2013-05-30 08:43:00,49.0,48.0,-100.00,South,174,3.0,4.0,97,-99.99,,,0.02,75.000000,,2013-05-30 15:43:00,
2013-05-30 08:52:00,49.0,48.0,-100.00,South,174,3.0,4.0,97,-99.99,,,0.02,75.000000,,2013-05-30 15:52:00,
2013-05-30 09:03:00,49.0,48.0,-100.00,South,174,3.0,4.0,97,-99.99,,,0.02,75.000000,,2013-05-30 16:03:00,
2013-05-30 09:12:00,49.0,48.0,-100.00,South,174,3.0,4.0,97,-99.99,,,0.02,75.000000,,2013-05-30 16:12:00,
2013-05-30 09:33:00,52.0,50.0,-100.00,South,174,2.0,4.0,92,0.00,,,0.02,232.000000,,2013-05-30 16:33:00,
2013-05-30 09:42:00,52.0,50.0,-100.00,South,174,2.0,4.0,92,0.00,,,0.02,232.000000,,2013-05-30 16:42:00,
2013-05-30 09:53:00,52.0,50.0,-100.00,South,174,2.0,4.0,92,0.00,,,0.02,232.000000,,2013-05-30 16:53:00,
2013-05-30 10:02:00,52.0,50.0,-100.00,South,174,2.0,4.0,92,0.00,,,0.02,232.000000,,2013-05-30 17:02:00,
2013-05-30 10:11:00,52.0,50.0,-100.00,South,174,2.0,4.0,92,0.00,,,0.02,232.000000,,2013-05-30 17:11:00,
2013-05-30 10:32:00,53.0,49.0,-100.00,ESE,117,2.0,4.0,85,0.00,,,0.02,374.000000,,2013-05-30 17:32:00,
2013-05-30 10:42:00,53.0,49.0,-100.00,ESE,117,2.0,4.0,85,0.00,,,0.02,374.000000,,2013-05-30 17:42:00,
2013-05-30 10:52:00,53.0,49.0,-100.00,ESE,117,2.0,4.0,85,0.00,,,0.02,374.000000,,2013-05-30 17:52:00,
2013-05-30 11:02:00,53.0,49.0,-100.00,ESE,117,2.0,4.0,85,0.00,,,0.02,374.000000,,2013-05-30 18:02:00,
2013-05-30 11:11:00,53.0,49.0,-100.00,ESE,117,2.0,4.0,85,0.00,,,0.02,374.000000,,2013-05-30 18:11:00,
2013-05-30 11:32:00,54.0,47.0,-100.00,WSW,243,2.0,4.0,77,0.00,,,0.00,206.000000,,2013-05-30 18:32:00,
2013-05-30 11:43:00,54.0,47.0,-100.00,WSW,243,2.0,4.0,77,0.00,,,0.00,206.000000,,2013-05-30 18:43:00,
2013-05-30 11:52:00,54.0,47.0,-100.00,WSW,243,2.0,4.0,77,0.00,,,0.00,206.000000,,2013-05-30 18:52:00,
2013-05-30 12:01:00,54.0,47.0,-100.00,WSW,243,2.0,4.0,77,0.00,,,0.00,206.000000,,2013-05-30 19:01:00,
2013-05-30 12:11:00,54.0,47.0,-100.00,WSW,243,2.0,4.0,77,0.00,,,0.00,206.000000,,2013-05-30 19:11:00,
2013-05-30 12:32:00,54.0,47.0,-100.00,South,170,2.0,3.0,76,0.00,,,0.00,313.000000,,2013-05-30 19:32:00,
2013-05-30 12:42:00,54.0,47.0,-100.00,South,170,2.0,3.0,76,0.00,,,0.00,313.000000,,2013-05-30 19:42:00,
2013-05-30 12:52:00,54.0,47.0,-100.00,South,170,2.0,3.0,76,0.00,,,0.00,313.000000,,2013-05-30 19:52:00,
2013-05-30 13:01:00,54.0,47.0,-100.00,South,170,2.0,3.0,76,0.00,,,0.00,313.000000,,2013-05-30 20:01:00,
2013-05-30 13:11:00,54.0,47.0,-100.00,South,170,2.0,3.0,76,0.00,,,0.00,313.000000,,2013-05-30 20:11:00,
2013-05-30 13:33:00,58.0,46.0,-100.00,WNW,297,3.0,6.0,65,0.00,,,0.00,485.000000,,2013-05-30 20:33:00,
2013-05-30 13:42:00,58.0,46.0,-100.00,WNW,297,3.0,6.0,65,0.00,,,0.00,485.000000,,2013-05-30 20:42:00,
2013-05-30 13:52:00,58.0,46.0,-100.00,WNW,297,3.0,6.0,65,0.00,,,0.00,485.000000,,2013-05-30 20:52:00,
2013-05-30 14:01:00,58.0,46.0,-100.00,WNW,297,3.0,6.0,65,0.00,,,0.00,485.000000,,2013-05-30 21:01:00,
2013-05-30 14:11:00,58.0,46.0,-100.00,WNW,297,3.0,6.0,65,0.00,,,0.00,485.000000,,2013-05-30 21:11:00,
2013-05-30 14:33:00,60.0,44.0,-100.00,WNW,286,3.0,6.0,56,0.00,,,0.00,871.000000,,2013-05-30 21:33:00,
2013-05-30 14:43:00,60.0,44.0,-100.00,WNW,286,3.0,6.0,56,0.00,,,0.00,871.000000,,2013-05-30 21:43:00,
2013-05-30 14:53:00,60.0,44.0,-100.00,WNW,286,3.0,6.0,56,0.00,,,0.00,871.000000,,2013-05-30 21:53:00,
2013-05-30 15:02:00,60.0,44.0,-100.00,WNW,286,3.0,6.0,56,0.00,,,0.00,871.000000,,2013-05-30 22:02:00,
2013-05-30 15:12:00,60.0,44.0,-100.00,WNW,286,3.0,6.0,56,0.00,,,0.00,871.000000,,2013-05-30 22:12:00,
2013-05-30 15:33:00,62.0,44.0,-100.00,WNW,299,3.0,6.0,51,0.00,,,0.00,823.000000,,2013-05-30 22:33:00,
2013-05-30 15:42:00,62.0,44.0,-100.00,WNW,299,3.0,6.0,51,0.00,,,0.00,823.000000,,2013-05-30 22:42:00,
2013-05-30 15:52:00,62.0,44.0,-100.00,WNW,299,3.0,6.0,51,0.00,,,0.00,823.000000,,2013-05-30 22:52:00,
2013-05-30 16:02:00,62.0,44.0,-100.00,WNW,299,3.0,6.0,51,0.00,,,0.00,823.000000,,2013-05-30 23:02:00,
2013-05-30 16:11:00,62.0,44.0,-100.00,WNW,299,3.0,6.0,51,0.00,,,0.00,823.000000,,2013-05-30 23:11:00,
2013-05-30 16:32:00,61.0,46.0,-100.00,WNW,296,4.0,6.0,58,0.00,,,0.00,859.000000,,2013-05-30 23:32:00,
2013-05-30 16:42:00,61.0,46.0,-100.00,WNW,296,4.0,6.0,58,0.00,,,0.00,859.000000,,2013-05-30 23:42:00,
2013-05-30 16:52:00,61.0,46.0,-100.00,WNW,296,4.0,6.0,58,0.00,,,0.00,859.000000,,2013-05-30 23:52:00,
2013-05-30 17:01:00,61.0,46.0,-100.00,WNW,296,4.0,6.0,58,0.00,,,0.00,859.000000,,2013-05-31 00:01:00,
2013-05-30 17:11:00,61.0,46.0,-100.00,WNW,296,4.0,6.0,58,0.00,,,0.00,859.000000,,2013-05-31 00:11:00,
2013-05-30 17:32:00,60.0,44.0,-100.00,NNW,328,4.0,7.0,56,0.00,,,-99.99,694.000000,,2013-05-31 00:32:00,
2013-05-30 17:42:00,60.0,44.0,-100.00,NNW,328,4.0,7.0,56,0.00,,,-99.99,694.000000,,2013-05-31 00:42:00,
2013-05-30 17:52:00,60.0,44.0,-100.00,NNW,328,4.0,7.0,56,0.00,,,-99.99,694.000000,,2013-05-31 00:52:00,
2013-05-30 18:01:00,60.0,44.0,-100.00,NNW,328,4.0,7.0,56,0.00,,,-99.99,694.000000,,2013-05-31 01:01:00,
2013-05-30 18:11:00,60.0,44.0,-100.00,NNW,328,4.0,7.0,56,0.00,,,-99.99,694.000000,,2013-05-31 01:11:00,
2013-05-30 18:32:00,60.0,43.0,-100.00,NW,320,3.0,6.0,54,0.00,,,0.00,494.000000,,2013-05-31 01:32:00,
2013-05-30 18:42:00,60.0,43.0,-100.00,NW,320,3.0,6.0,54,0.00,,,0.00,494.000000,,2013-05-31 01:42:00,
2013-05-30 18:52:00,60.0,43.0,-100.00,NW,320,3.0,6.0,54,0.00,,,0.00,494.000000,,2013-05-31 01:52:00,
2013-05-30 19:02:00,60.0,43.0,-100.00,NW,320,3.0,6.0,54,0.00,,,0.00,494.000000,,2013-05-31 02:02:00,
2013-05-30 19:11:00,60.0,43.0,-100.00,NW,320,3.0,6.0,54,0.00,,,0.00,494.000000,,2013-05-31 02:11:00,
2013-05-30 19:32:00,58.0,47.0,-100.00,NNW,333,3.0,6.0,66,0.00,,,0.00,291.000000,,2013-05-31 02:32:00,
2013-05-30 19:42:00,58.0,47.0,-100.00,NNW,333,3.0,6.0,66,0.00,,,0.00,291.000000,,2013-05-31 02:42:00,
2013-05-30 19:52:00,58.0,47.0,-100.00,NNW,333,3.0,6.0,66,0.00,,,0.00,291.000000,,2013-05-31 02:52:00,
2013-05-30 20:01:00,58.0,47.0,-100.00,NNW,333,3.0,6.0,66,0.00,,,0.00,291.000000,,2013-05-31 03:01:00,
2013-05-30 20:11:00,58.0,47.0,-100.00,NNW,333,3.0,6.0,66,0.00,,,0.00,291.000000,,2013-05-31 03:11:00,
2013-05-30 20:33:00,54.0,49.0,-100.00,NNW,348,2.0,5.0,82,0.00,,,0.00,106.000000,,2013-05-31 03:33:00,
2013-05-30 20:43:00,54.0,49.0,-100.00,NNW,348,2.0,5.0,82,0.00,,,0.00,106.000000,,2013-05-31 03:43:00,
2013-05-30 20:53:00,54.0,49.0,-100.00,NNW,348,2.0,5.0,82,0.00,,,0.00,106.000000,,2013-05-31 03:53:00,
2013-05-30 21:02:00,54.0,49.0,-100.00,NNW,348,2.0,5.0,82,0.00,,,0.00,106.000000,,2013-05-31 04:02:00,
2013-05-30 21:12:00,54.0,49.0,-100.00,NNW,348,2.0,5.0,82,0.00,,,0.00,106.000000,,2013-05-31 04:12:00,
2013-05-30 21:33:00,50.0,48.0,-100.00,NNW,346,2.0,4.0,94,0.00,,,0.00,11.000000,,2013-05-31 04:33:00,
2013-05-30 21:42:00,50.0,48.0,-100.00,NNW,346,2.0,4.0,94,0.00,,,0.00,11.000000,,2013-05-31 04:42:00,
2013-05-30 21:53:00,50.0,48.0,-100.00,NNW,346,2.0,4.0,94,0.00,,,0.00,11.000000,,2013-05-31 04:53:00,
2013-05-30 22:02:00,50.0,48.0,-100.00,NNW,346,2.0,4.0,94,0.00,,,0.00,11.000000,,2013-05-31 05:02:00,
2013-05-30 22:11:00,50.0,48.0,-100.00,NNW,346,2.0,4.0,94,0.00,,,0.00,11.000000,,2013-05-31 05:11:00,
2013-05-30 22:32:00,49.0,48.0,-100.00,North,353,2.0,4.0,97,0.00,,,0.00,0.000000,,2013-05-31 05:32:00,
2013-05-30 22:42:00,49.0,48.0,-100.00,North,353,2.0,4.0,97,0.00,,,0.00,0.000000,,2013-05-31 05:42:00,
2013-05-30 22:52:00,49.0,48.0,-100.00,North,353,2.0,4.0,97,0.00,,,0.00,0.000000,,2013-05-31 05:52:00,
2013-05-30 23:01:00,49.0,48.0,-100.00,North,353,2.0,4.0,97,0.00,,,0.00,0.000000,,2013-05-31 06:01:00,
2013-05-30 23:11:00,49.0,48.0,-100.00,North,353,2.0,4.0,97,0.00,,,0.00,0.000000,,2013-05-31 06:11:00,
2013-05-30 23:32:00,47.0,46.0,-100.00,North,357,1.0,3.0,97,0.00,,,0.00,0.000000,,2013-05-31 06:32:00,
2013-05-30 23:42:00,47.0,46.0,-100.00,North,357,1.0,3.0,97,0.00,,,0.00,0.000000,,2013-05-31 06:42:00,
2013-05-30 23:52:00,47.0,46.0,-100.00,North,357,1.0,3.0,97,0.00,,,0.00,0.000000,,2013-05-31 06:52:00,